,,Stat1,,Stat2,,Stat3,,Stat4,,Wind1,,Wind1,
time,status,PR1M_SUM,status,RH1M_AVG,status,SR1M_AVG,status,TA1M_AVG,status,W1dAve1m,status,W1sAve1m,
1999-09-09, 00:01:00,VALID,0,VALID,97.4583,VALID,-0.0849042,VALID,18.0201,VALID,197,VALID,1.63672,
1999-09-09, 00:02:00,VALID,0,VALID,97.2701,VALID,0.0339617,VALID,18.0383,VALID,196,VALID,1.66036,
1999-09-09, 00:03:00,VALID,0,VALID,97.1964,VALID,0,VALID,18.0506,VALID,205,VALID,1.44832,
1999-09-09, 00:04:00,VALID,0,VALID,97.1035,VALID,0.0169808,VALID,18.0736,VALID,195,VALID,1.71443,
1999-09-09, 00:05:00,VALID,0,VALID,97.0997,VALID,0.0339617,VALID,18.087,VALID,194,VALID,1.35726,
1999-09-09, 00:06:01,VALID,0,VALID,97.1722,VALID,0.0169808,VALID,18.0866,VALID,182,VALID,1.01322,
1999-09-09, 00:07:01,VALID,0,VALID,97.1989,VALID,0.0169808,VALID,18.0766,VALID,154,VALID,1.0609,
1999-09-09, 00:08:00,VALID,0,VALID,97.293,VALID,0.0339617,VALID,18.0669,VALID,159,VALID,0.999794,
1999-09-09, 00:09:00,VALID,0,VALID,97.3757,VALID,0.0169808,VALID,18.051,VALID,152,VALID,1.05429,
1999-09-09, 00:10:00,VALID,0,VALID,97.4431,VALID,0.0339617,VALID,18.015,VALID,138,VALID,1.15857,
1999-09-09, 00:11:00,VALID,0,VALID,97.7114,VALID,0,VALID,17.9956,VALID,108,VALID,1.22305,
1999-09-09, 00:12:00,VALID,0,VALID,97.8462,VALID,0.0169808,VALID,17.9732,VALID,115,VALID,1.05962,
1999-09-09, 00:13:00,VALID,0,VALID,97.9441,VALID,0.0169808,VALID,17.9605,VALID,141,VALID,0.448633,
1999-09-09, 00:14:00,VALID,0,VALID,98.0064,VALID,0,VALID,17.9541,VALID,141,VALID,0.558388,
1999-09-09, 00:15:00,VALID,0,VALID,98.0038,VALID,0.0339617,VALID,17.9435,VALID,159,VALID,0.165968,
1999-09-09, 00:16:00,VALID,0,VALID,98.0738,VALID,0.0509425,VALID,17.9471,VALID,156,VALID,0,
1999-09-09, 00:17:00,VALID,0,VALID,98.2365,VALID,-0.0509425,VALID,17.9605,VALID,135,VALID,0,
1999-09-09, 00:18:01,VALID,0,VALID,98.365,VALID,-0.0339617,VALID,17.967,VALID,134,VALID,0,
1999-09-09, 00:19:00,VALID,0,VALID,98.4235,VALID,-0.0339617,VALID,17.9511,VALID,134,VALID,0,
1999-09-09, 00:20:00,VALID,0,VALID,98.4095,VALID,-0.0509425,VALID,17.9282,VALID,141,VALID,0,
1999-09-09, 00:21:00,VALID,0,VALID,98.3891,VALID,-0.0679233,VALID,17.9185,VALID,161,VALID,0,
1999-09-09, 00:22:00,VALID,0,VALID,98.3294,VALID,-0.0679233,VALID,17.8924,VALID,161,VALID,0.722756,
1999-09-09, 00:23:00,VALID,0,VALID,98.3688,VALID,0,VALID,17.8894,VALID,162,VALID,0.682292,
1999-09-09, 00:24:00,VALID,0,VALID,98.3713,VALID,-0.0509425,VALID,17.8869,VALID,175,VALID,0.877003,
1999-09-09, 00:25:00,VALID,0,VALID,98.3713,VALID,-0.0509425,VALID,17.8474,VALID,188,VALID,1.20898,
1999-09-09, 00:26:00,VALID,0,VALID,98.4095,VALID,-0.0339617,VALID,17.8315,VALID,203,VALID,1.53951,
1999-09-09, 00:27:00,VALID,0,VALID,98.4222,VALID,-0.0339617,VALID,17.8282,VALID,213,VALID,1.42528,
1999-09-09, 00:28:00,VALID,0,VALID,98.3993,VALID,-0.0679233,VALID,17.8022,VALID,222,VALID,1.53577,
1999-09-09, 00:29:01,VALID,0,VALID,98.3332,VALID,-0.0339617,VALID,17.7959,VALID,215,VALID,1.59438,
1999-09-09, 00:30:00,VALID,0,VALID,98.2798,VALID,-0.0679233,VALID,17.8123,VALID,208,VALID,1.54647,
1999-09-09, 00:31:00,VALID,0,VALID,98.1895,VALID,-0.0679233,VALID,17.8019,VALID,191,VALID,1.4718,
1999-09-09, 00:32:00,VALID,0,VALID,98.1526,VALID,-0.0679233,VALID,17.8289,VALID,200,VALID,1.02268,
1999-09-09, 00:33:00,VALID,0,VALID,98.1475,VALID,0,VALID,17.8382,VALID,184,VALID,1.26686,
1999-09-09, 00:34:00,VALID,0,VALID,98.1234,VALID,-0.0169808,VALID,17.8216,VALID,203,VALID,1.26641,
1999-09-09, 00:35:00,VALID,0,VALID,98.1106,VALID,-0.0679233,VALID,17.828,VALID,194,VALID,1.21727,
1999-09-09, 00:36:00,VALID,0,VALID,98.1424,VALID,-0.0849042,VALID,17.8282,VALID,201,VALID,1.22368,
1999-09-09, 00:37:00,VALID,0,VALID,98.2073,VALID,-0.0509425,VALID,17.8315,VALID,206,VALID,1.47336,
1999-09-09, 00:38:00,VALID,0,VALID,98.2429,VALID,-0.0339617,VALID,17.8282,VALID,206,VALID,1.74324,
1999-09-09, 00:39:00,VALID,0,VALID,98.2518,VALID,-0.0169808,VALID,17.8576,VALID,219,VALID,1.59396,
1999-09-09, 00:40:01,VALID,0,VALID,98.1882,VALID,-0.0339617,VALID,17.8636,VALID,214,VALID,1.69984,
1999-09-09, 00:41:00,VALID,0,VALID,98.0878,VALID,-0.0339617,VALID,17.8767,VALID,218,VALID,1.9349,
1999-09-09, 00:42:00,VALID,0,VALID,98.0064,VALID,-0.0509425,VALID,17.9024,VALID,219,VALID,1.60346,
1999-09-09, 00:43:00,VALID,0,VALID,97.8983,VALID,-0.0509425,VALID,17.8927,VALID,221,VALID,1.76836,
1999-09-09, 00:44:00,VALID,0,VALID,97.8894,VALID,-0.0339617,VALID,17.8959,VALID,222,VALID,2.04667,
1999-09-09, 00:45:00,VALID,0,VALID,97.9987,VALID,-0.0509425,VALID,17.867,VALID,229,VALID,1.61563,
1999-09-09, 00:46:00,VALID,0,VALID,98.1106,VALID,-0.0679233,VALID,17.8444,VALID,226,VALID,1.59293,
1999-09-09, 00:47:00,VALID,0,VALID,98.2022,VALID,-0.0679233,VALID,17.8319,VALID,217,VALID,1.63472,
1999-09-09, 00:48:00,VALID,0,VALID,98.1679,VALID,-0.0679233,VALID,17.8091,VALID,214,VALID,1.55743,
1999-09-09, 00:49:00,VALID,0,VALID,98.2086,VALID,-0.0509425,VALID,17.8317,VALID,212,VALID,1.49198,
1999-09-09, 00:50:01,VALID,0,VALID,98.1857,VALID,-0.0679233,VALID,17.8739,VALID,208,VALID,1.38522,
1999-09-09, 00:51:01,VALID,0,VALID,98.1272,VALID,-0.0509425,VALID,17.9254,VALID,212,VALID,1.12007,
1999-09-09, 00:52:00,VALID,0,VALID,98.0712,VALID,-0.0679233,VALID,17.9446,VALID,209,VALID,1.43032,
1999-09-09, 00:53:00,VALID,0,VALID,97.9403,VALID,-0.0679233,VALID,17.9995,VALID,213,VALID,1.60321,
1999-09-09, 00:54:00,VALID,0,VALID,97.719,VALID,-0.0679233,VALID,18.0612,VALID,206,VALID,1.33514,
1999-09-09, 00:55:00,VALID,0,VALID,97.3782,VALID,-0.0849042,VALID,18.1159,VALID,211,VALID,1.65365,
1999-09-09, 00:56:00,VALID,0,VALID,96.9052,VALID,-0.0339617,VALID,18.145,VALID,223,VALID,1.63782,
1999-09-09, 00:57:00,VALID,0,VALID,96.6877,VALID,-0.0679233,VALID,18.1517,VALID,220,VALID,1.54238,
1999-09-09, 00:58:00,VALID,0,VALID,96.6992,VALID,-0.0849042,VALID,18.1487,VALID,218,VALID,1.32232,
1999-09-09, 00:59:00,VALID,0,VALID,96.7297,VALID,-0.0509425,VALID,18.1189,VALID,225,VALID,1.72576,
1999-09-09, 01:00:00,VALID,0,VALID,96.7322,VALID,-0.0849042,VALID,18.1122,VALID,215,VALID,1.37479,
1999-09-09, 01:01:00,VALID,0,VALID,96.7602,VALID,-0.0339617,VALID,18.1027,VALID,219,VALID,1.28442,
1999-09-09, 01:02:00,VALID,0,VALID,96.8746,VALID,-0.0679233,VALID,18.0935,VALID,214,VALID,1.35056,
1999-09-09, 01:03:00,VALID,0,VALID,96.8886,VALID,-0.0679233,VALID,18.0833,VALID,224,VALID,1.51658,
1999-09-09, 01:04:00,VALID,0,VALID,96.8746,VALID,-0.0679233,VALID,18.1004,VALID,216,VALID,1.77439,
1999-09-09, 01:05:00,VALID,0,VALID,96.8212,VALID,-0.0849042,VALID,18.1131,VALID,212,VALID,1.55736,
1999-09-09, 01:06:00,VALID,0,VALID,96.7221,VALID,-0.101885,VALID,18.1288,VALID,215,VALID,1.71055,
1999-09-09, 01:07:00,VALID,0,VALID,96.5555,VALID,-0.0509425,VALID,18.1648,VALID,214,VALID,1.4375,
1999-09-09, 01:08:00,VALID,0,VALID,96.6343,VALID,-0.0679233,VALID,18.1743,VALID,204,VALID,1.16036,
1999-09-09, 01:09:00,VALID,0,VALID,96.6737,VALID,-0.0849042,VALID,18.1641,VALID,202,VALID,1.38902,
1999-09-09, 01:10:00,VALID,0,VALID,96.6992,VALID,-0.0509425,VALID,18.1514,VALID,205,VALID,1.23332,
1999-09-09, 01:11:00,VALID,0,VALID,96.6941,VALID,-0.0509425,VALID,18.139,VALID,207,VALID,1.69367,
1999-09-09, 01:12:00,VALID,0,VALID,96.7818,VALID,-0.0679233,VALID,18.1159,VALID,206,VALID,1.73232,
1999-09-09, 01:13:00,VALID,0,VALID,96.895,VALID,-0.0679233,VALID,18.1159,VALID,210,VALID,1.51803,
1999-09-09, 01:14:00,VALID,0,VALID,96.9217,VALID,-0.0339617,VALID,18.0903,VALID,210,VALID,1.5416,
1999-09-09, 01:15:00,VALID,0,VALID,96.9688,VALID,-0.0169808,VALID,18.0866,VALID,214,VALID,1.30977,
1999-09-09, 01:16:00,VALID,0,VALID,97.0527,VALID,-0.0169808,VALID,18.0836,VALID,219,VALID,1.10197,
1999-09-09, 01:17:00,VALID,0,VALID,97.0412,VALID,-0.0169808,VALID,18.0672,VALID,204,VALID,1.36055,
1999-09-09, 01:18:00,VALID,0,VALID,96.8746,VALID,-0.0169808,VALID,18.0635,VALID,225,VALID,1.62109,
1999-09-09, 01:19:00,VALID,0,VALID,96.7322,VALID,0.0169808,VALID,18.0866,VALID,223,VALID,1.72085,
1999-09-09, 01:20:00,VALID,0,VALID,96.6508,VALID,0,VALID,18.0896,VALID,215,VALID,1.65351,
1999-09-09, 01:21:00,VALID,0,VALID,96.5033,VALID,0,VALID,18.0928,VALID,213,VALID,2.29235,
1999-09-09, 01:22:01,VALID,0,VALID,96.4245,VALID,0,VALID,18.0923,VALID,214,VALID,2.14022,
1999-09-09, 01:23:00,VALID,0,VALID,96.4627,VALID,0.0169808,VALID,18.1126,VALID,218,VALID,1.84334,
1999-09-09, 01:24:00,VALID,0,VALID,96.408,VALID,0.0169808,VALID,18.099,VALID,220,VALID,1.90245,
1999-09-09, 01:25:00,VALID,0,VALID,96.3991,VALID,0.0169808,VALID,18.1154,VALID,221,VALID,1.74609,
1999-09-09, 01:26:00,VALID,0,VALID,96.2503,VALID,-0.0169808,VALID,18.1284,VALID,219,VALID,2.11999,
1999-09-09, 01:27:00,VALID,0,VALID,96.1676,VALID,0,VALID,18.154,VALID,222,VALID,1.66587,
1999-09-09, 01:28:00,VALID,0,VALID,96.1562,VALID,0.0169808,VALID,18.1572,VALID,211,VALID,1.76683,
1999-09-09, 01:29:00,VALID,0,VALID,96.2121,VALID,0.0169808,VALID,18.1708,VALID,215,VALID,1.46504,
1999-09-09, 01:30:00,VALID,0,VALID,96.3088,VALID,0.0169808,VALID,18.1475,VALID,217,VALID,1.40625,
1999-09-09, 01:31:00,VALID,0,VALID,96.3927,VALID,0,VALID,18.1512,VALID,226,VALID,1.23638,
1999-09-09, 01:32:00,VALID,0,VALID,96.3393,VALID,-0.0849042,VALID,18.1392,VALID,228,VALID,1.50863,
1999-09-09, 01:33:00,VALID,0,VALID,96.3215,VALID,-0.0849042,VALID,18.1327,VALID,220,VALID,1.3144,
1999-09-09, 01:34:00,VALID,0,VALID,96.3571,VALID,-0.101885,VALID,18.1366,VALID,228,VALID,1.40224,
1999-09-09, 01:35:00,VALID,0,VALID,96.3864,VALID,-0.101885,VALID,18.1265,VALID,232,VALID,1.26829,
1999-09-09, 01:36:00,VALID,0,VALID,96.4652,VALID,-0.118866,VALID,18.1173,VALID,238,VALID,1.1694,
1999-09-09, 01:37:00,VALID,0,VALID,96.6305,VALID,-0.118866,VALID,18.0879,VALID,220,VALID,0.719778,
1999-09-09, 01:38:00,VALID,0,VALID,96.7093,VALID,-0.118866,VALID,18.0752,VALID,218,VALID,1.22891,
1999-09-09, 01:39:00,VALID,0,VALID,96.8454,VALID,-0.101885,VALID,18.0688,VALID,197,VALID,0.572635,
1999-09-09, 01:40:00,VALID,0,VALID,97.0781,VALID,-0.101885,VALID,18.0785,VALID,138,VALID,0.580387,
1999-09-09, 01:41:00,VALID,0,VALID,97.2015,VALID,-0.0849042,VALID,18.0718,VALID,105,VALID,1.01062,
1999-09-09, 01:42:00,VALID,0,VALID,97.3261,VALID,-0.118866,VALID,18.0623,VALID,106,VALID,1.15878,
1999-09-09, 01:43:00,VALID,0,VALID,97.3324,VALID,-0.101885,VALID,18.0655,VALID,105,VALID,1.25555,
1999-09-09, 01:44:00,VALID,0,VALID,97.3668,VALID,-0.101885,VALID,18.0623,VALID,118,VALID,1.10876,
1999-09-09, 01:45:00,VALID,0,VALID,97.3223,VALID,-0.118866,VALID,18.0621,VALID,128,VALID,0.972756,
1999-09-09, 01:46:00,VALID,0,VALID,97.3083,VALID,-0.118866,VALID,18.0549,VALID,142,VALID,0.661529,
1999-09-09, 01:47:00,VALID,0,VALID,97.2193,VALID,-0.0169808,VALID,18.0674,VALID,141,VALID,0.832617,
1999-09-09, 01:48:00,VALID,0,VALID,97.1557,VALID,0,VALID,18.0803,VALID,137,VALID,0.764186,
1999-09-09, 01:49:00,VALID,0,VALID,97.1239,VALID,0,VALID,18.0801,VALID,132,VALID,0.496484,
1999-09-09, 01:50:00,VALID,0,VALID,97.246,VALID,0,VALID,18.0736,VALID,137,VALID,0.55736,
1999-09-09, 01:51:00,VALID,0,VALID,97.3299,VALID,0,VALID,18.0667,VALID,124,VALID,0.243521,
1999-09-09, 01:52:00,VALID,0,VALID,97.3871,VALID,0,VALID,18.0441,VALID,147,VALID,0.304688,
1999-09-09, 01:53:00,VALID,0,VALID,97.3833,VALID,0,VALID,18.0346,VALID,159,VALID,0.196752,
1999-09-09, 01:54:00,VALID,0,VALID,97.3528,VALID,0,VALID,18.0187,VALID,167,VALID,0.258413,
1999-09-09, 01:55:00,VALID,0,VALID,97.3795,VALID,0.0169808,VALID,18.0122,VALID,120,VALID,0.316612,
1999-09-09, 01:56:00,VALID,0,VALID,97.4291,VALID,0.0169808,VALID,18.015,VALID,145,VALID,0.500845,
1999-09-09, 01:57:00,VALID,0,VALID,97.3706,VALID,0,VALID,18.0049,VALID,170,VALID,0.333676,
1999-09-09, 01:58:00,VALID,0,VALID,97.3515,VALID,-0.0169808,VALID,18.0187,VALID,148,VALID,0.435296,
1999-09-09, 01:59:00,VALID,0,VALID,97.4202,VALID,0,VALID,18.0083,VALID,143,VALID,0.0955529,
1999-09-09, 02:00:00,VALID,0,VALID,97.4176,VALID,0,VALID,18.0217,VALID,172,VALID,0.46875,
1999-09-09, 02:01:00,VALID,0,VALID,97.4062,VALID,-0.0169808,VALID,18.0155,VALID,177,VALID,0.61582,
1999-09-09, 02:02:00,VALID,0,VALID,97.4253,VALID,-0.101885,VALID,18.0034,VALID,190,VALID,0.77567,
1999-09-09, 02:03:00,VALID,0,VALID,97.3833,VALID,-0.0849042,VALID,17.9843,VALID,190,VALID,0.994591,
1999-09-09, 02:04:00,VALID,0,VALID,97.4965,VALID,-0.101885,VALID,17.9845,VALID,207,VALID,0.744449,
1999-09-09, 02:05:00,VALID,0,VALID,97.4927,VALID,-0.101885,VALID,17.985,VALID,213,VALID,1.18412,
1999-09-09, 02:06:00,VALID,0,VALID,97.5359,VALID,-0.118866,VALID,17.9748,VALID,213,VALID,1.51042,
1999-09-09, 02:07:00,VALID,0,VALID,97.5015,VALID,-0.135847,VALID,17.9718,VALID,210,VALID,1.65263,
1999-09-09, 02:08:00,VALID,0,VALID,97.4265,VALID,-0.101885,VALID,17.981,VALID,207,VALID,1.1997,
1999-09-09, 02:09:00,VALID,0,VALID,97.3451,VALID,-0.135847,VALID,18.0071,VALID,210,VALID,1.20909,
1999-09-09, 02:10:00,VALID,0,VALID,97.2231,VALID,-0.101885,VALID,18.0268,VALID,198,VALID,1.63809,
1999-09-09, 02:11:00,VALID,0,VALID,97.1735,VALID,-0.101885,VALID,18.0588,VALID,200,VALID,1.16026,
1999-09-09, 02:12:00,VALID,0,VALID,97.0527,VALID,-0.101885,VALID,18.0748,VALID,208,VALID,1.26645,
1999-09-09, 02:13:00,VALID,0,VALID,96.9192,VALID,-0.101885,VALID,18.1006,VALID,212,VALID,1.24299,
1999-09-09, 02:14:00,VALID,0,VALID,96.8708,VALID,-0.0849042,VALID,18.1392,VALID,222,VALID,1.18011,
1999-09-09, 02:15:00,VALID,0,VALID,96.8975,VALID,-0.101885,VALID,18.1521,VALID,223,VALID,1.0148,
1999-09-09, 02:16:00,VALID,0,VALID,96.8772,VALID,-0.101885,VALID,18.1454,VALID,227,VALID,0.957237,
1999-09-09, 02:17:00,VALID,0,VALID,96.9548,VALID,-0.0169808,VALID,18.1284,VALID,227,VALID,0.901643,
1999-09-09, 02:18:00,VALID,0,VALID,97.04,VALID,0.0169808,VALID,18.1221,VALID,218,VALID,0.901394,
1999-09-09, 02:19:00,VALID,0,VALID,97.0629,VALID,0,VALID,18.1025,VALID,229,VALID,0.634375,
1999-09-09, 02:20:00,VALID,0,VALID,97.1671,VALID,0,VALID,18.0963,VALID,232,VALID,0.242804,
1999-09-09, 02:21:00,VALID,0,VALID,97.2879,VALID,0,VALID,18.0963,VALID,306,VALID,0.280273,
1999-09-09, 02:22:00,VALID,0,VALID,97.3604,VALID,-0.0169808,VALID,18.0863,VALID,289,VALID,0.258224,
1999-09-09, 02:23:00,VALID,0,VALID,97.4761,VALID,-0.0169808,VALID,18.0868,VALID,320,VALID,0.531059,
1999-09-09, 02:24:00,VALID,0,VALID,97.6898,VALID,-0.0169808,VALID,18.0868,VALID,310,VALID,0.392736,
1999-09-09, 02:25:00,VALID,0,VALID,97.7711,VALID,0,VALID,18.0379,VALID,324,VALID,0.457031,
1999-09-09, 02:26:00,VALID,0,VALID,97.9263,VALID,-0.0169808,VALID,18.015,VALID,309,VALID,0.449319,
1999-09-09, 02:27:00,VALID,0,VALID,97.9898,VALID,0,VALID,17.9954,VALID,298,VALID,0.421053,
1999-09-09, 02:28:00,VALID,0,VALID,98.0916,VALID,0,VALID,17.9928,VALID,298,VALID,0.330236,
1999-09-09, 02:29:00,VALID,0,VALID,98.1615,VALID,0,VALID,17.9871,VALID,303,VALID,0.417763,
1999-09-09, 02:30:00,VALID,0,VALID,98.2009,VALID,0,VALID,17.9471,VALID,287,VALID,0.338742,
1999-09-09, 02:31:00,VALID,0,VALID,98.2378,VALID,0,VALID,17.9672,VALID,269,VALID,0.58153,
1999-09-09, 02:32:00,VALID,0,VALID,98.2518,VALID,-0.0849042,VALID,17.9552,VALID,270,VALID,0.506811,
1999-09-09, 02:33:00,VALID,0,VALID,98.2645,VALID,-0.101885,VALID,17.972,VALID,272,VALID,0.560938,
1999-09-09, 02:34:00,VALID,0,VALID,98.2823,VALID,-0.135847,VALID,17.972,VALID,278,VALID,0.562277,
1999-09-09, 02:35:00,VALID,0,VALID,98.2963,VALID,-0.118866,VALID,17.9778,VALID,266,VALID,0.334936,
1999-09-09, 02:36:00,VALID,0,VALID,98.3357,VALID,-0.101885,VALID,17.9912,VALID,259,VALID,0,
1999-09-09, 02:37:00,VALID,0,VALID,98.3828,VALID,-0.101885,VALID,17.9877,VALID,263,VALID,0,
1999-09-09, 02:38:00,VALID,0,VALID,98.3879,VALID,-0.101885,VALID,17.9841,VALID,245,VALID,0.450921,
1999-09-09, 02:39:00,VALID,0,VALID,98.4222,VALID,-0.101885,VALID,17.9841,VALID,260,VALID,0.296494,
1999-09-09, 02:40:00,VALID,0,VALID,98.4451,VALID,-0.0849042,VALID,17.994,VALID,252,VALID,0.0348704,
1999-09-09, 02:41:00,VALID,0,VALID,98.4489,VALID,-0.0849042,VALID,17.9841,VALID,253,VALID,0.0719572,
1999-09-09, 02:42:00,VALID,0,VALID,98.482,VALID,-0.0849042,VALID,17.991,VALID,260,VALID,0.0224609,
1999-09-09, 02:43:00,VALID,0,VALID,98.501,VALID,-0.101885,VALID,17.9813,VALID,256,VALID,0.280828,
1999-09-09, 02:44:00,VALID,0,VALID,98.4921,VALID,-0.101885,VALID,17.9815,VALID,272,VALID,0.0727796,
1999-09-09, 02:45:00,VALID,0,VALID,98.5239,VALID,-0.118866,VALID,17.9882,VALID,269,VALID,0,
1999-09-09, 02:46:00,VALID,0,VALID,98.5023,VALID,-0.101885,VALID,17.9744,VALID,241,VALID,0,
1999-09-09, 02:47:00,VALID,0,VALID,98.4591,VALID,-0.0169808,VALID,17.97,VALID,212,VALID,0.17866,
1999-09-09, 02:48:00,VALID,0,VALID,98.4616,VALID,0.0169808,VALID,17.9735,VALID,193,VALID,0.335732,
1999-09-09, 02:49:00,VALID,0,VALID,98.4298,VALID,-0.0169808,VALID,17.964,VALID,181,VALID,0.52504,
1999-09-09, 02:50:00,VALID,0,VALID,98.5087,VALID,0,VALID,17.967,VALID,161,VALID,0.83277,
1999-09-09, 02:51:00,VALID,0,VALID,98.5417,VALID,0,VALID,17.9767,VALID,146,VALID,1.16973,
1999-09-09, 02:52:00,VALID,0,VALID,98.5583,VALID,-0.0169808,VALID,17.9635,VALID,151,VALID,1.02035,
1999-09-09, 02:53:00,VALID,0,VALID,98.6053,VALID,0.0169808,VALID,17.9575,VALID,143,VALID,0.792578,
1999-09-09, 02:54:00,VALID,0,VALID,98.6841,VALID,0,VALID,17.9508,VALID,125,VALID,0.698396,
1999-09-09, 02:55:00,VALID,0,VALID,98.7299,VALID,0,VALID,17.9508,VALID,123,VALID,0.806974,
1999-09-09, 02:56:00,VALID,0,VALID,98.777,VALID,0,VALID,17.9704,VALID,113,VALID,0.548775,
1999-09-09, 02:57:00,VALID,0,VALID,98.81,VALID,0,VALID,17.9767,VALID,115,VALID,0.927837,
1999-09-09, 02:58:00,VALID,0,VALID,98.7935,VALID,-0.0169808,VALID,17.9767,VALID,122,VALID,0.924679,
1999-09-09, 02:59:00,VALID,0,VALID,98.7821,VALID,-0.0169808,VALID,17.9702,VALID,111,VALID,1.01624,
1999-09-09, 03:00:00,VALID,0,VALID,98.763,VALID,-0.0169808,VALID,17.9707,VALID,120,VALID,1.06757,
1999-09-09, 03:01:00,VALID,0,VALID,98.7465,VALID,0.0169808,VALID,17.9605,VALID,117,VALID,0.825041,
1999-09-09, 03:02:01,VALID,0,VALID,98.7465,VALID,0,VALID,17.9538,VALID,113,VALID,0.655048,
1999-09-09, 03:03:00,VALID,0,VALID,98.7312,VALID,0,VALID,17.9411,VALID,104,VALID,0.560697,
1999-09-09, 03:04:00,VALID,0,VALID,98.7223,VALID,0,VALID,17.9446,VALID,121,VALID,0.357372,
1999-09-09, 03:05:00,VALID,0,VALID,98.6778,VALID,-0.0169808,VALID,17.9181,VALID,143,VALID,0.730078,
1999-09-09, 03:06:00,VALID,0,VALID,98.5532,VALID,0.0169808,VALID,17.9054,VALID,149,VALID,0.410268,
1999-09-09, 03:07:00,VALID,0,VALID,98.5163,VALID,0,VALID,17.8929,VALID,126,VALID,0.549279,
1999-09-09, 03:08:00,VALID,0,VALID,98.4807,VALID,0.0169808,VALID,17.883,VALID,143,VALID,0.513569,
1999-09-09, 03:09:00,VALID,0,VALID,98.4451,VALID,0,VALID,17.876,VALID,121,VALID,0.719595,
1999-09-09, 03:10:00,VALID,0,VALID,98.398,VALID,0,VALID,17.8857,VALID,97,VALID,0.920072,
1999-09-09, 03:11:00,VALID,0,VALID,98.3586,VALID,-0.0169808,VALID,17.8631,VALID,91,VALID,1.19017,
1999-09-09, 03:12:00,VALID,0,VALID,98.3459,VALID,-0.0169808,VALID,17.8608,VALID,95,VALID,1.21303,
1999-09-09, 03:13:01,VALID,0,VALID,98.4247,VALID,0,VALID,17.8414,VALID,96,VALID,0.994655,
1999-09-09, 03:14:00,VALID,0,VALID,98.4921,VALID,-0.0169808,VALID,17.8123,VALID,90,VALID,1.05684,
1999-09-09, 03:15:00,VALID,0,VALID,98.6028,VALID,-0.0339617,VALID,17.8125,VALID,100,VALID,0.718117,
1999-09-09, 03:16:00,VALID,0,VALID,98.6206,VALID,-0.0339617,VALID,17.7959,VALID,148,VALID,0.820724,
1999-09-09, 03:17:00,VALID,0,VALID,98.632,VALID,0.0169808,VALID,17.7858,VALID,153,VALID,0.880809,
1999-09-09, 03:18:00,VALID,0,VALID,98.6015,VALID,0.0339617,VALID,17.7793,VALID,165,VALID,0.834671,
1999-09-09, 03:19:00,VALID,0,VALID,98.6015,VALID,0,VALID,17.7729,VALID,161,VALID,0.483141,
1999-09-09, 03:20:00,VALID,0,VALID,98.6218,VALID,0.0169808,VALID,17.7733,VALID,158,VALID,0.481908,
1999-09-09, 03:21:00,VALID,0,VALID,98.6333,VALID,-0.0169808,VALID,17.7768,VALID,156,VALID,0.416066,
1999-09-09, 03:22:00,VALID,0,VALID,98.6307,VALID,-0.0169808,VALID,17.7701,VALID,160,VALID,0.488809,
1999-09-09, 03:23:00,VALID,0,VALID,98.66,VALID,-0.0169808,VALID,17.7768,VALID,152,VALID,0.880664,
1999-09-09, 03:24:01,VALID,0,VALID,98.6536,VALID,0,VALID,17.7699,VALID,162,VALID,0.92352,
1999-09-09, 03:25:00,VALID,0,VALID,98.6549,VALID,-0.0169808,VALID,17.7925,VALID,186,VALID,1.23242,
1999-09-09, 03:26:00,VALID,0,VALID,98.5786,VALID,0,VALID,17.8089,VALID,180,VALID,1.09498,
1999-09-09, 03:27:00,VALID,0,VALID,98.4438,VALID,0,VALID,17.8412,VALID,190,VALID,1.11681,
1999-09-09, 03:28:00,VALID,0,VALID,98.3294,VALID,0,VALID,17.8767,VALID,206,VALID,1.16639,
1999-09-09, 03:29:00,VALID,0,VALID,98.2009,VALID,0,VALID,17.8989,VALID,216,VALID,1.96896,
1999-09-09, 03:30:00,VALID,0,VALID,98.0267,VALID,0,VALID,17.9347,VALID,216,VALID,1.73458,
1999-09-09, 03:31:00,VALID,0,VALID,97.8996,VALID,0,VALID,17.9638,VALID,213,VALID,1.99404,
1999-09-09, 03:32:00,VALID,0,VALID,97.7622,VALID,-0.0509425,VALID,17.9838,VALID,221,VALID,2.16955,
1999-09-09, 03:33:00,VALID,0,VALID,97.6885,VALID,-0.118866,VALID,18.0101,VALID,223,VALID,1.66776,
1999-09-09, 03:34:00,VALID,0,VALID,97.6325,VALID,-0.0849042,VALID,18.0198,VALID,211,VALID,2.36639,
1999-09-09, 03:35:01,VALID,0,VALID,97.6732,VALID,-0.101885,VALID,18.0265,VALID,214,VALID,2.01542,
1999-09-09, 03:36:00,VALID,0,VALID,97.6898,VALID,-0.0849042,VALID,18.0233,VALID,208,VALID,1.94431,
1999-09-09, 03:37:00,VALID,0,VALID,97.7635,VALID,-0.101885,VALID,18.0104,VALID,214,VALID,2.25098,
1999-09-09, 03:38:00,VALID,0,VALID,97.8309,VALID,-0.0849042,VALID,17.9977,VALID,221,VALID,1.99219,
1999-09-09, 03:39:00,VALID,0,VALID,97.8245,VALID,-0.101885,VALID,17.9977,VALID,215,VALID,2.18209,
1999-09-09, 03:40:00,VALID,0,VALID,97.8373,VALID,-0.0509425,VALID,17.9937,VALID,221,VALID,1.75411,
1999-09-09, 03:41:00,VALID,0,VALID,97.8512,VALID,-0.101885,VALID,17.9905,VALID,219,VALID,1.88556,
1999-09-09, 03:42:00,VALID,0,VALID,97.8767,VALID,-0.0679233,VALID,17.9907,VALID,217,VALID,2.21935,
1999-09-09, 03:43:00,VALID,0,VALID,97.8919,VALID,-0.101885,VALID,18.0037,VALID,215,VALID,1.86986,
1999-09-09, 03:44:00,VALID,0,VALID,97.8741,VALID,-0.101885,VALID,18.0201,VALID,219,VALID,1.04821,
1999-09-09, 03:45:01,VALID,0,VALID,97.8576,VALID,-0.101885,VALID,18.0226,VALID,208,VALID,1.4817,
1999-09-09, 03:46:01,VALID,0,VALID,97.8576,VALID,-0.0849042,VALID,18.0395,VALID,181,VALID,1.21289,
1999-09-09, 03:47:00,VALID,0,VALID,97.8627,VALID,-0.0169808,VALID,18.0545,VALID,161,VALID,0.85853,
1999-09-09, 03:48:00,VALID,0,VALID,97.897,VALID,0.0339617,VALID,18.0769,VALID,162,VALID,0.853002,
1999-09-09, 03:49:00,VALID,0,VALID,97.9517,VALID,0,VALID,18.0863,VALID,141,VALID,0.888622,
1999-09-09, 03:50:00,VALID,0,VALID,97.9644,VALID,0.0169808,VALID,18.1217,VALID,124,VALID,0.782306,
1999-09-09, 03:51:00,VALID,0,VALID,97.9479,VALID,0,VALID,18.1348,VALID,117,VALID,0.952097,
1999-09-09, 03:52:00,VALID,0,VALID,97.9174,VALID,0.0339617,VALID,18.1611,VALID,117,VALID,1.22039,
1999-09-09, 03:53:00,VALID,0,VALID,97.8856,VALID,0,VALID,18.1798,VALID,138,VALID,1.04811,
1999-09-09, 03:54:00,VALID,0,VALID,97.8067,VALID,0.0339617,VALID,18.2055,VALID,154,VALID,0.92272,
1999-09-09, 03:55:00,VALID,0,VALID,97.6847,VALID,0.0339617,VALID,18.232,VALID,174,VALID,0.818164,
1999-09-09, 03:56:01,VALID,0,VALID,97.4748,VALID,0.0509425,VALID,18.2479,VALID,158,VALID,0.962582,
1999-09-09, 03:57:01,VALID,0,VALID,97.1213,VALID,0.0169808,VALID,18.2865,VALID,169,VALID,0.985352,
1999-09-09, 03:58:00,VALID,0,VALID,96.9014,VALID,0.0169808,VALID,18.3029,VALID,182,VALID,1.03063,
1999-09-09, 03:59:00,VALID,0,VALID,96.5262,VALID,0,VALID,18.3029,VALID,189,VALID,1.29973,
1999-09-09, 04:00:00,VALID,0,VALID,96.1397,VALID,0.0339617,VALID,18.3253,VALID,185,VALID,1.22741,
1999-09-09, 04:01:00,VALID,0,VALID,95.8574,VALID,0.0169808,VALID,18.368,VALID,193,VALID,1.12233,
1999-09-09, 04:02:00,VALID,0,VALID,95.2915,VALID,0.0169808,VALID,18.3708,VALID,191,VALID,1.73177,
1999-09-09, 04:03:00,VALID,0,VALID,95.0207,VALID,0.0339617,VALID,18.4326,VALID,189,VALID,1.20436,
1999-09-09, 04:04:00,VALID,0,VALID,94.4192,VALID,0.0169808,VALID,18.4673,VALID,196,VALID,1.62817,